Terminal Aerodrome Forecast
Issued by NWS Portland, OR

Home | Current Version | Previous Version | Text Only | Print | Product List | Glossary On
Versions: 1 2 3 4 5 6 7 8 9 10 11 12 13 14 15 16 17 18 19 20 21 22 23 24 25 26 27 28 29 30 31 32 33 34 35 36 37 38 39 40 41 42 43 44 45 46 47 48 49 50
307
FTUS46 KPQR 232325
TAFPDX
TAF
KPDX 232325Z 2400/2424 09009KT P6SM -RA SCT050 OVC080
     FM240200 09010KT P6SM -RA SCT030 OVC045
     FM240400 10011KT 6SM -RA SCT025 OVC035
     FM241100 14010KT P6SM -SHRA SCT025 BKN035
     FM241900 19010KT P6SM -SHRA VCTS SCT025 BKN040CB=

USA.gov is the U.S. government's official web portal to all federal, state and local government web resources and services.